sat.trackr.live / text

‹ back to catalog

STARLINK-3201

NORAD 49771 · 2021-115AZ

PAYLOAD ACTIVE UNKNOWN

§ Identity

Operator
Country
US
Launch date
2021-12-02
Launch site
AFETR
Launch vehicle
Mass (kg)
RCS (m²)

Purposes: comms

External: N2YO · Heavens-Above · Gunter

§ Orbital elements

Epoch: 2026-05-25T01:02:37.067712Z

Period
95.44 min
Inclination
53.2130°
Eccentricity
0.0001244
Mean motion
15.08841415 rev/d
Perigee alt
538.9 km
Apogee alt
540.6 km
Semi-major
6,917.9 km
B*
6.8154e-5
RAAN
156.3575°
Arg perigee
92.1067°
Mean anomaly
268.0068°
Rev number
24,720

§ Raw data

STARLINK-32011 49771U 21115AZ  26145.04348458  .00000797  00000+0  68154-4 0  99922 49771  53.2130 156.3575 0001244  92.1067 268.0068 15.08841415247204

JSON: /api/v1/satellites/49771 · /tle

For live sub-satellite position, see the globe view (requires WebGL).

§ Visibility from observer

Set your observer location to see the next 7 days of passes ≥ 10°. The values pass through the URL so the page stays shareable.

No JS? Fill the form by hand. The geolocation button needs JavaScript.